NOAA 16 DEB

Satellite information

Favourite Embed

Satellite Type and Status

DEBRISIN ORBIT

Key statistics

Satellite NOAA 16 DEB at a glance.

Uptime

9116

Days in orbit

Revolutions

≈ 14.6

Per day

Orbit

SSO

Sun Synchronous Orbit

Inclination

99.0

Latest

Satellite identification and parameters

Extended collection of information and parameters for NOAA 16 DEB.

Object identification

Identified? True

Debris? True

Object name: NOAA 16 DEB

International designator: 2000-055PH

Object number (NORAD): 41668

Object ID (CCSDS): 41668

Country: UNITED STATES OF AMERICA (US)

Current information (Y/N): Y

RCS size: SMALL

Orbital parameters

Period: 98.559 minutes

Inclination: 98.9562 deg

SMA: 7067.901 km

Apoapsis: 711.09 km

Periapsis: 668.443 km

RAAN: 83.3598 deg

Eccentricy: 0.0030169

Argument of periapsis: 224.7469 deg

Mean anomaly: 135.1295 deg

Mean motion: 14.61056572 rev/day

Mean motion (dot): 0.00018782 rev/day2

B* drag term: 0.0038012523 1/REarth

Two-line elements (TLE)

Creation date: Sept. 5, 2025, 7:38 p.m.

Reference frame: TEME

Reference center: EARTH

Epoch: Sept. 5, 2025, 11:36 a.m. UTC

TLE line 0: 0 NOAA 16 DEB

TLE line 1: 1 41668U 00055PH 25248.48368087 .00018782 00000-0 38013-2 0 9993

TLE line 2: 2 41668 98.9562 83.3598 0030169 224.7469 135.1295 14.61056572490179

Live tracking on map

Real-time ground track for satellite NOAA 16 DEB.

In-orbit conjunctions

A list of the most updated potential collisions computed for object NOAA 16 DEB.

Target Orbit TCA Probability of collision Miss distance Type
MAST SSO 2025-07-11 18:59:02 0.0002590594 409.0 (m) PAYLOAD
SCOUT B-1 R/B LEO 2025-06-14 08:15:54 0.0002328674 330.0 (m) ROCKET BODY

Associated space launch

The NOAA K, L and M POES satellites begin the fifth generation of improved environmental monitoring in support of NOAA missions. The instrument payload has significant improvements and additions/deletions. The instrument changes have effected the spacecraft subsystems and data formats.

NOAA 16 DEB was lifted into orbit during the mission ‘Titan II SLV | NOAA 16’, on board a Titan II SLV space rocket.

The launch took place on Sept. 21, 2000, 10:22 a.m. from Space Launch Complex 4W.

For more information about the launch, click the button.

Launch to space Titan II SLV | NOAA 16
Titan II SLV | NOAA 16

Agency: N/A

Status: Launch Successful

Launch date: Sept. 21, 2000, 10:22 a.m. UTC

Rocket: Titan II SLV

Launch pad: Space Launch Complex 4W

Location: Vandenberg SFB, CA, USA

...

Latest news about this satellite

There are no fresh news available about this satellite. Check back as we update our databases every day.


Newsletter sign-up

Weekly statistics, charts and insights to help you stay on top of the space industry.